Location: Odd Fellows Park
(38.5021°N, 122.9472°W)
Time: 12:39:59
(UTC+00:00)

Daily predictions for brighter satellites

Satellite Brightness Start Highest point End
(mag) Time Altitude Azimuth Time Altitude Azimuth Time Altitude Azimuth
Cosmos 1825 Rocket 4.0 12:01:45 10° NNW 12:05:47 39° W 12:08:19 20° SSW
CZ-2C R/B 3.1 12:02:25 10° N 12:06:04 44° WNW 12:07:44 26° SW
ARIANE 5 R/B 3.7 12:01:55 10° N 12:06:15 27° WNW 12:08:34 20° WSW
MSX 3.9 12:01:22 10° N 12:07:04 63° WNW 12:11:53 15° SSW
USA 267 4.1 12:02:12 10° ESE 12:08:29 52° NE 12:14:47 10° NW
Cosmos 1745 Rocket 4.0 12:04:48 10° NNW 12:10:57 60° W 12:16:59 10° S
USA 102 4.2 12:05:54 10° S 12:11:52 49° WSW 12:14:17 17° NW
CZ-4B R/B 3.3 12:10:15 10° SE 12:13:09 31° ENE 12:16:00 10° N
Cosmos 1455 4.4 12:11:31 10° SSE 12:14:46 26° E 12:18:03 10° NNE
Landsat 5 3.4 12:12:11 10° S 12:16:02 54° W 12:20:02 10° NNW
Cosmos 1953 Rocket 3.8 12:11:54 10° NNW 12:16:13 48° W 12:20:29 10° SSW
Lacrosse 5 rocket 3.5 12:13:43 10° S 12:17:23 25° ESE 12:21:08 10° ENE
Cosmos 1300 3.1 12:15:09 20° SW 12:17:27 43° W 12:21:07 10° N
Cosmos 1900 4.4 12:16:45 10° NW 12:21:52 66° WSW 12:26:56 10° SSE
SeaSat 1 2.4 12:17:51 10° NNE 12:22:49 90° WNW 12:27:45 10° SSW
ADEOS Rocket 4.4 12:18:52 10° SSE 12:26:19 58° ENE 12:33:53 10° N
Cosmos 2058 4.2 12:23:28 10° N 12:27:30 45° E 12:31:31 10° SSE
Cosmos 494 Rocket 4.4 12:23:00 10° NW 12:27:46 38° WSW 12:32:33 10° SSW
ERS-2 2.5 12:25:35 10° S 12:29:03 42° W 12:32:32 10° NNW
Cosmos 1844 4.3 12:33:17 12° SW 12:38:20 42° WNW 12:43:48 10° N
TSX-5 4.0 12:39:49 10° S 12:42:54 50° ESE 12:45:59 10° NE
SAR-Lupe-4 3.5 12:42:01 10° S 12:45:35 82° WSW 12:49:11 10° NNW
NOSS 2-2 (C) 4.4 12:42:47 11° WSW 12:45:40 26° NW 12:48:56 10° N
Cosmos 1689 Rocket 4.0 12:44:12 10° SE 12:46:52 34° ENE 12:49:31 10° N
CZ-2C R/B 2.6 12:44:25 10° N 12:48:49 46° WNW 12:53:18 10° SW
PSLV R/B 4.3 12:45:41 10° N 12:49:39 35° WNW 12:53:35 10° SW
Cosmos 1709 Rocket 4.1 12:45:00 10° NNW 12:50:55 51° W 12:56:47 10° SSW
ASTRO F (AKARI) 4.4 12:48:25 10° NNE 12:51:30 72° ESE 12:54:36 10° S
IDEFIX/ARIANE 42P 4.3 12:48:36 10° NNW 12:51:40 16° WNW 12:54:44 10° W
ADEOS 3.6 12:48:57 10° N 12:54:09 70° WNW 12:59:20 10° SSW
ATLAS 3B CENTAUR R/B 4.4 12:48:42 10° W 12:55:14 17° SW 12:59:31 10° S
Cosmos 2278 Rocket 2.5 12:54:31 10° SSW 13:00:09 75° ESE 13:05:49 10° NNE
NOSS 3-4 (A) 4.4 12:57:00 10° S 13:02:35 47° ESE 13:08:25 10° NE
USA 281 3.4 12:56:13 10° NNE 13:02:39 60° WNW 13:09:03 10° SW
NOSS 3-4 (C) 4.4 12:57:09 10° S 13:02:44 46° ESE 13:08:32 10° NE
